Powrót do katalogu

NADEZHDA 4

AktywnyŁącznośćPO
NORAD 23179·PAYLOAD·🇷🇺 Russia

Wystrzelony Jul 14, 1994 z Plesetsk Cosmodrome

Loading…

Następne Przeloty (najbliższe 24 godziny)

TLE

ŚwieżeSource: Space-Track

Epoka: Sep 14, 2026, 10:09 UTC

1 23179U 94041A   26257.42302385  .00000056  00000-0  41764-4 0  9996
2 23179  82.9485 320.7682 0034809 197.8458 172.8805 13.76818817615805

Śledź NADEZHDA 4 w czasie rzeczywistym z AllMySat

Download on the App Store